Location: Recife
(8.0585°S, 34.8848°W)
Time: 11:18:38
(UTC-03:00)

Courier 1B Rocket - Pass Details

Date: 23 April 2026
Orbit: 920 x 1201 km, 28.2° (Epoch: 13 May)

Event Time Altitude Azimuth Distance (km) Brightness Sun altitude
Rises 09:52:33 0° 233° (SW) 3,777 7.8 60.4°
Reaches altitude 10° 09:55:18 10° 227° (SW) 2,866 7.3 60.9°
Maximum altitude 10:02:05 48° 154° (SSE) 1,411 6.4 62.0°
Drops below altitude 10° 10:09:18 10° 81° (E) 3,052 8.1 63.2°
Sets 10:12:18 0° 75° (ENE) 4,041 8.5 63.7°
